Highlighted
Absent Member.
Absent Member.
953 views

Expired Visual COBOL personal edition

I have Visual COBOL Personal edition, but it ran out this week. As the other posting about that, I re-registered and tried to install it, but I couldn't do it.

As the error message, I uninstalled prior Visual COBOL and tried to re-install it, but it doesn't work. I need help because my class use this version, and I have to study with it for 4 months. The attachment is error message window and log file.

Thank you for helping me.

[0918:1880][2016-10-12T15:05:01]i001: Burn v3.7.1224.0, Windows v6.2 (Build 9200: Service Pack 0), path: D:\Downloads\vce_23.exe, cmdline: ''
[0918:1880][2016-10-12T15:05:01]i000: Initializing string variable 'ProductRevision' to value '2.3.00343'
[0918:1880][2016-10-12T15:05:01]i000: Initializing string variable 'InstallFolder' to value '[ProgramFilesFolder]Micro Focus\Visual COBOL'
[0918:1880][2016-10-12T15:05:01]i000: Initializing numeric variable 'RumbaCheckbox' to value '0'
[0918:1880][2016-10-12T15:05:01]i000: Initializing string variable 'RumbaCheckboxState' to value 'disable'
[0918:1880][2016-10-12T15:05:01]i000: Initializing string variable 'RumbaLabelState' to value 'disable'
[0918:1880][2016-10-12T15:05:01]i000: Initializing string variable 'InstallFolder2' to value 'C:\Users\Public\Micro Focus\Visual COBOL'
[0918:1880][2016-10-12T15:05:01]i000: Initializing numeric variable 'ignorechecks' to value '0'
[0918:1880][2016-10-12T15:05:01]i000: Initializing numeric variable 'skipsafenet' to value '0'
[0918:1880][2016-10-12T15:05:01]i000: Initializing numeric variable 'skipjre' to value '0'
[0918:1880][2016-10-12T15:05:01]i000: Initializing string variable 'NucleusRegKey' to value 'SOFTWARE\Micro Focus\Visual COBOL\2.3'
[0918:1880][2016-10-12T15:05:01]i000: Setting string variable 'WixBundleLog' to value 'C:\Users\lifei\AppData\Local\Temp\Micro_Focus_Visual_COBOL_for_Eclipse_20161012150501.log'
[0918:1880][2016-10-12T15:05:01]i000: Setting string variable 'WixBundleOriginalSource' to value 'D:\Downloads\vce_23.exe'
[0918:1880][2016-10-12T15:05:01]i000: Setting string variable 'WixBundleName' to value 'Micro Focus Visual COBOL for Eclipse'
[0918:23D0][2016-10-12T15:05:01]i000: Running detect BA function
[0918:23D0][2016-10-12T15:05:01]i000: Setting string variable 'InstallFolder' to value 'C:\Program Files (x86)\Micro Focus\Visual COBOL\'
[0918:23D0][2016-10-12T15:05:01]i000: Setting string variable 'FolderEditboxState' to value 'disable'
[0918:23D0][2016-10-12T15:05:01]i000: Setting string variable 'BrowseButtonState' to value 'disable'
[0918:23D0][2016-10-12T15:05:01]i000: Setting string variable 'InstallFolder2' to value 'C:\Users\Public\Micro Focus\Visual COBOL\'
[0918:23D0][2016-10-12T15:05:01]i000: Setting string variable 'FolderEditbox2State' to value 'disable'
[0918:23D0][2016-10-12T15:05:01]i000: Setting string variable 'EclipseLabelState' to value 'disable'
[0918:23D0][2016-10-12T15:05:01]i000: Setting string variable 'BrowseButton2State' to value 'disable'
[0918:23D0][2016-10-12T15:05:01]i000: Setting string variable 'HFDetected' to value '0'
[0918:23D0][2016-10-12T15:05:01]i000: Setting string variable 'HFDetected' to value '1'
[0918:1880][2016-10-12T15:05:01]i100: Detect begin, 10 packages
[0918:1880][2016-10-12T15:05:01]i000: Setting string variable 'jreversion' to value '11.102.2'
[0918:1880][2016-10-12T15:05:01]i000: Setting string variable 'Netfx45FullVersion' to value '4.6.01586'
[0918:1880][2016-10-12T15:05:01]i000: Registry key not found. Key = 'SOFTWARE\Micro Focus\Visual COBOL\2.1'
[0918:1880][2016-10-12T15:05:01]i000: Registry key not found. Key = 'SOFTWARE\Micro Focus\Visual COBOL\2.2'
[0918:1880][2016-10-12T15:05:01]i000: Setting string variable 'regEclipseLatest' to value 'Micro Focus Visual COBOL for Eclipse'
[0918:1880][2016-10-12T15:05:01]i000: Registry key not found. Key = 'SOFTWARE\Micro Focus\Visual COBOL\2.2'
[0918:1880][2016-10-12T15:05:01]i000: Registry key not found. Key = 'SOFTWARE\Micro Focus\Visual COBOL 2012\2.2'
[0918:1880][2016-10-12T15:05:01]i000: Registry key not found. Key = 'SOFTWARE\Micro Focus\Visual COBOL 2013\2.2'
[0918:1880][2016-10-12T15:05:01]i000: Registry key not found. Key = 'SOFTWARE\Micro Focus\Visual COBOL\2.1'
[0918:1880][2016-10-12T15:05:01]i000: Registry value not found. Key = 'SOFTWARE\Micro Focus\Visual COBOL\2.3', Value = 'ProductName'
[0918:1880][2016-10-12T15:05:01]i000: Registry key not found. Key = 'SOFTWARE\Micro Focus\Visual COBOL\2.1'
[0918:1880][2016-10-12T15:05:01]i000: Registry key not found. Key = 'SOFTWARE\Micro Focus\Visual COBOL\2.2'
[0918:1880][2016-10-12T15:05:01]i000: Registry key not found. Key = 'SOFTWARE\Micro Focus\Visual COBOL 2012\2.1'
[0918:1880][2016-10-12T15:05:01]i000: Registry key not found. Key = 'SOFTWARE\Micro Focus\Visual COBOL 2012\2.2'
[0918:1880][2016-10-12T15:05:01]i000: Registry value not found. Key = 'SOFTWARE\Micro Focus\Visual COBOL\2.3', Value = 'VCVS2012ProductName'
[0918:1880][2016-10-12T15:05:01]i000: Registry key not found. Key = 'SOFTWARE\Micro Focus\Visual COBOL 2013\2.2'
[0918:1880][2016-10-12T15:05:01]i000: Registry value not found. Key = 'SOFTWARE\Micro Focus\Visual COBOL\2.3', Value = 'VCVS2013ProductName'
[0918:1880][2016-10-12T15:05:01]i000: Registry value not found. Key = 'SOFTWARE\Micro Focus\Visual COBOL\2.3', Value = 'VCVS2015ProductName'
[0918:1880][2016-10-12T15:05:01]i000: Setting numeric variable 'vcredist2012x64' to value 1
[0918:1880][2016-10-12T15:05:01]i000: Setting numeric variable 'vcredist2012x86' to value 1
[0918:1880][2016-10-12T15:05:01]i052: Condition 'vcredist2012x86' evaluates to true.
[0918:1880][2016-10-12T15:05:01]i052: Condition 'vcredist2012x64' evaluates to true.
[0918:1880][2016-10-12T15:05:01]i052: Condition 'jreversion >= v11.51.2' evaluates to true.
[0918:1880][2016-10-12T15:05:01]i052: Condition 'Netfx45FullVersion AND (Netfx45FullVersion >= v4.5.51209)' evaluates to true.
[0918:1880][2016-10-12T15:05:01]i101: Detected package: vcredist2012_x86, state: Present, cached: None
[0918:1880][2016-10-12T15:05:01]i101: Detected package: vcredist2012_x64, state: Present, cached: None
[0918:1880][2016-10-12T15:05:01]i101: Detected package: jre, state: Present, cached: None
[0918:1880][2016-10-12T15:05:01]i101: Detected package: dotnetfx452, state: Present, cached: None
[0918:1880][2016-10-12T15:05:01]i101: Detected package: lmsetupx86, state: Absent, cached: None
[0918:1880][2016-10-12T15:05:01]i101: Detected package: lmsetupx64, state: Absent, cached: Complete
[0918:1880][2016-10-12T15:05:01]i101: Detected package: visualcobol_23x86, state: Present, cached: None
[0918:1880][2016-10-12T15:05:01]i101: Detected package: visualcobol_23x64, state: Present, cached: None
[0918:1880][2016-10-12T15:05:01]i101: Detected package: visualcoboleclipse_23x86, state: Present, cached: Complete
[0918:1880][2016-10-12T15:05:01]i101: Detected package: visualcoboleclipse_23x64, state: Present, cached: Complete
[0918:1880][2016-10-12T15:05:01]i052: Condition 'Privileged' evaluates to true.
[0918:1880][2016-10-12T15:05:01]i052: Condition 'ignorechecks="1" or (VersionNT=v6.1 AND ServicePackLevel>=1) OR VersionNT>v6.1' evaluates to true.
[0918:1880][2016-10-12T15:05:01]i052: Condition 'WixBundleInstalled or ignorechecks="1" or regEclipseLatest<>"Micro Focus Visual COBOL for Eclipse"' evaluates to false.
[0918:1880][2016-10-12T15:05:01]e000: Error 0x81f40001: Bundle condition evaluated to false: WixBundleInstalled or ignorechecks="1" or regEclipseLatest<>"Micro Focus Visual COBOL for Eclipse"
[0918:1880][2016-10-12T15:05:01]i199: Detect complete, result: 0x0

0 Likes
1 Reply
Highlighted
Absent Member.
Absent Member.

RE: Expired Visual COBOL personal edition

call MF support

0 Likes
The opinions expressed above are the personal opinions of the authors, not of Micro Focus. By using this site, you accept the Terms of Use and Rules of Participation. Certain versions of content ("Material") accessible here may contain branding from Hewlett-Packard Company (now HP Inc.) and Hewlett Packard Enterprise Company. As of September 1, 2017, the Material is now offered by Micro Focus, a separately owned and operated company. Any reference to the HP and Hewlett Packard Enterprise/HPE marks is historical in nature, and the HP and Hewlett Packard Enterprise/HPE marks are the property of their respective owners.